Year,Month,Day,Hour,Minute,Value (Times are PST for temperature in C)
2023,05,15,00,00,18.70
2023,05,15,00,01,18.70
2023,05,15,00,02,18.70
2023,05,15,00,03,18.70
2023,05,15,00,04,18.60
2023,05,15,00,05,18.60
2023,05,15,00,06,18.60
2023,05,15,00,07,18.60
2023,05,15,00,08,18.60
2023,05,15,00,09,18.60
2023,05,15,00,10,18.60
2023,05,15,00,11,18.50
2023,05,15,00,12,18.50
2023,05,15,00,13,18.50
2023,05,15,00,14,18.40
2023,05,15,00,15,18.40
2023,05,15,00,16,18.40
2023,05,15,00,17,18.40
2023,05,15,00,18,18.50
2023,05,15,00,19,18.40
2023,05,15,00,20,18.40
2023,05,15,00,21,18.40
2023,05,15,00,22,18.40
2023,05,15,00,23,18.40
2023,05,15,00,24,18.40
2023,05,15,00,25,18.40
2023,05,15,00,26,18.40
2023,05,15,00,27,18.40
2023,05,15,00,28,18.40
2023,05,15,00,29,18.30
2023,05,15,00,30,18.30
2023,05,15,00,31,18.30
2023,05,15,00,32,18.20
2023,05,15,00,33,18.20
2023,05,15,00,34,18.30
2023,05,15,00,35,18.20
2023,05,15,00,36,18.30
2023,05,15,00,37,18.30
2023,05,15,00,38,18.30
2023,05,15,00,39,18.30
2023,05,15,00,40,18.30
2023,05,15,00,41,18.20
2023,05,15,00,42,18.20
2023,05,15,00,43,18.20
2023,05,15,00,44,18.20
2023,05,15,00,45,18.30
2023,05,15,00,46,18.30
2023,05,15,00,47,18.30
2023,05,15,00,48,18.30
2023,05,15,00,49,18.30
2023,05,15,00,50,18.20
2023,05,15,00,51,18.20
2023,05,15,00,52,18.20
2023,05,15,00,53,18.20
2023,05,15,00,54,18.20
2023,05,15,00,55,18.10
2023,05,15,00,56,18.10
2023,05,15,00,57,18.10
2023,05,15,00,58,18.10
2023,05,15,00,59,18.10
2023,05,15,01,00,18.10
2023,05,15,01,01,18.10
2023,05,15,01,02,18.10
2023,05,15,01,03,18.00
2023,05,15,01,04,18.00
2023,05,15,01,05,18.00
2023,05,15,01,06,18.00
2023,05,15,01,07,18.00
2023,05,15,01,08,17.90
2023,05,15,01,09,17.90
2023,05,15,01,10,17.90
2023,05,15,01,11,17.90
2023,05,15,01,12,17.90
2023,05,15,01,13,17.80
2023,05,15,01,14,17.80
2023,05,15,01,15,17.80
2023,05,15,01,16,17.80
2023,05,15,01,17,17.80
2023,05,15,01,18,17.70
2023,05,15,01,19,17.70
2023,05,15,01,20,17.70
2023,05,15,01,21,17.70
2023,05,15,01,22,17.70
2023,05,15,01,23,17.70
2023,05,15,01,24,17.70
2023,05,15,01,25,17.60
2023,05,15,01,26,17.60
2023,05,15,01,27,17.60
2023,05,15,01,28,17.60
2023,05,15,01,29,17.60
2023,05,15,01,30,17.60
2023,05,15,01,31,17.60
2023,05,15,01,32,17.60
2023,05,15,01,33,17.60
2023,05,15,01,34,17.60
2023,05,15,01,35,17.60
2023,05,15,01,36,17.50
2023,05,15,01,37,17.50
2023,05,15,01,38,17.50
2023,05,15,01,39,17.50
2023,05,15,01,40,17.50
2023,05,15,01,41,17.50
2023,05,15,01,42,17.50
2023,05,15,01,43,17.50
2023,05,15,01,44,17.50
2023,05,15,01,45,17.60
2023,05,15,01,46,17.50
2023,05,15,01,47,17.50
2023,05,15,01,48,17.50
2023,05,15,01,49,17.50
2023,05,15,01,50,17.50
2023,05,15,01,51,17.40
2023,05,15,01,52,17.50
2023,05,15,01,53,17.50
2023,05,15,01,54,17.50
2023,05,15,01,55,17.50
2023,05,15,01,56,17.50
2023,05,15,01,57,17.50
2023,05,15,01,58,17.50
2023,05,15,01,59,17.50
2023,05,15,02,00,17.50
2023,05,15,02,01,17.40
2023,05,15,02,02,17.40
2023,05,15,02,03,17.40
2023,05,15,02,04,17.40
2023,05,15,02,05,17.40
2023,05,15,02,06,17.40
2023,05,15,02,07,17.40
2023,05,15,02,08,17.40
2023,05,15,02,09,17.40
2023,05,15,02,10,17.30
2023,05,15,02,11,17.30
2023,05,15,02,12,17.30
2023,05,15,02,13,17.30
2023,05,15,02,14,17.30
2023,05,15,02,15,17.30
2023,05,15,02,16,17.30
2023,05,15,02,17,17.30
2023,05,15,02,18,17.30
2023,05,15,02,19,17.20
2023,05,15,02,20,17.20
2023,05,15,02,21,17.20
2023,05,15,02,22,17.20
2023,05,15,02,23,17.20
2023,05,15,02,24,17.20
2023,05,15,02,25,17.20
2023,05,15,02,26,17.10
2023,05,15,02,27,17.10
2023,05,15,02,28,17.10
2023,05,15,02,29,17.10
2023,05,15,02,30,17.00
2023,05,15,02,31,17.00
2023,05,15,02,32,17.00
2023,05,15,02,33,16.90
2023,05,15,02,34,16.90
2023,05,15,02,35,16.90
2023,05,15,02,36,16.90
2023,05,15,02,37,16.90
2023,05,15,02,38,16.90
2023,05,15,02,39,16.90
2023,05,15,02,40,16.90
2023,05,15,02,41,16.90
2023,05,15,02,42,16.90
2023,05,15,02,43,16.90
2023,05,15,02,44,16.90
2023,05,15,02,45,16.90
2023,05,15,02,46,16.90
2023,05,15,02,47,16.90
2023,05,15,02,48,16.90
2023,05,15,02,49,16.90
2023,05,15,02,50,16.80
2023,05,15,02,51,16.80
2023,05,15,02,52,16.80
2023,05,15,02,53,16.80
2023,05,15,02,54,16.80
2023,05,15,02,55,16.80
2023,05,15,02,56,16.70
2023,05,15,02,57,16.70
2023,05,15,02,58,16.70
2023,05,15,02,59,16.70
2023,05,15,03,00,16.70
2023,05,15,03,01,16.70
2023,05,15,03,02,16.70
2023,05,15,03,03,16.70
2023,05,15,03,04,16.70
2023,05,15,03,05,16.60
2023,05,15,03,06,16.60
2023,05,15,03,07,16.60
2023,05,15,03,08,16.60
2023,05,15,03,09,16.60
2023,05,15,03,10,16.60
2023,05,15,03,11,16.60
2023,05,15,03,12,16.50
2023,05,15,03,13,16.50
2023,05,15,03,14,16.50
2023,05,15,03,15,16.50
2023,05,15,03,16,16.40
2023,05,15,03,17,16.40
2023,05,15,03,18,16.40
2023,05,15,03,19,16.40
2023,05,15,03,20,16.40
2023,05,15,03,21,16.40
2023,05,15,03,22,16.40
2023,05,15,03,23,16.40
2023,05,15,03,24,16.40
2023,05,15,03,25,16.40
2023,05,15,03,26,16.40
2023,05,15,03,27,16.40
2023,05,15,03,28,16.40
2023,05,15,03,29,16.40
2023,05,15,03,30,16.50
2023,05,15,03,31,16.50
2023,05,15,03,32,16.50
2023,05,15,03,33,16.50
2023,05,15,03,34,16.60
2023,05,15,03,35,16.60
2023,05,15,03,36,16.60
2023,05,15,03,37,16.60
2023,05,15,03,38,16.60
2023,05,15,03,39,16.60
2023,05,15,03,40,16.60
2023,05,15,03,41,16.60
2023,05,15,03,42,16.60
2023,05,15,03,43,16.60
2023,05,15,03,44,16.60
2023,05,15,03,45,16.60
2023,05,15,03,46,16.60
2023,05,15,03,47,16.60
2023,05,15,03,48,16.60
2023,05,15,03,49,16.60
2023,05,15,03,50,16.60
2023,05,15,03,51,16.60
2023,05,15,03,52,16.60
2023,05,15,03,53,16.60
2023,05,15,03,54,16.60
2023,05,15,03,55,16.60
2023,05,15,03,56,16.60
2023,05,15,03,57,16.60
2023,05,15,03,58,16.60
2023,05,15,03,59,16.60
2023,05,15,04,00,16.60
2023,05,15,04,01,16.60
2023,05,15,04,02,16.60
2023,05,15,04,03,16.60
2023,05,15,04,04,16.60
2023,05,15,04,05,16.70
2023,05,15,04,06,16.60
2023,05,15,04,07,16.60
2023,05,15,04,08,16.60
2023,05,15,04,09,16.60
2023,05,15,04,10,16.50
2023,05,15,04,11,16.50
2023,05,15,04,12,16.50
2023,05,15,04,13,16.60
2023,05,15,04,14,16.60
2023,05,15,04,15,16.60
2023,05,15,04,16,16.60
2023,05,15,04,17,16.60
2023,05,15,04,18,16.60
2023,05,15,04,19,16.60
2023,05,15,04,20,16.50
2023,05,15,04,21,16.50
2023,05,15,04,22,16.40
2023,05,15,04,23,16.40
2023,05,15,04,24,16.40
2023,05,15,04,25,16.30
2023,05,15,04,26,16.30
2023,05,15,04,27,16.30
2023,05,15,04,28,16.30
2023,05,15,04,29,16.30
2023,05,15,04,30,16.30
2023,05,15,04,31,16.30
2023,05,15,04,32,16.30
2023,05,15,04,33,16.20
2023,05,15,04,34,16.20
2023,05,15,04,35,16.20
2023,05,15,04,36,16.20
2023,05,15,04,37,16.20
2023,05,15,04,38,16.20
2023,05,15,04,39,16.20
2023,05,15,04,40,16.10
2023,05,15,04,41,16.10
2023,05,15,04,42,16.10
2023,05,15,04,43,16.10
2023,05,15,04,44,16.10
2023,05,15,04,45,16.10
2023,05,15,04,46,16.10
2023,05,15,04,47,16.10
2023,05,15,04,48,16.10
2023,05,15,04,49,16.10
2023,05,15,04,50,16.10
2023,05,15,04,51,16.10
2023,05,15,04,52,16.10
2023,05,15,04,53,16.10
2023,05,15,04,54,16.10
2023,05,15,04,55,16.10
2023,05,15,04,56,16.00
2023,05,15,04,57,16.00
2023,05,15,04,58,16.00
2023,05,15,04,59,16.00
2023,05,15,05,00,16.00
2023,05,15,05,01,16.00
2023,05,15,05,02,16.00
2023,05,15,05,03,16.00
2023,05,15,05,04,16.00
2023,05,15,05,05,16.00
2023,05,15,05,06,16.00
2023,05,15,05,07,16.10
2023,05,15,05,08,16.10
2023,05,15,05,09,16.10
2023,05,15,05,10,16.10
2023,05,15,05,11,16.10
2023,05,15,05,12,16.10
2023,05,15,05,13,16.10
2023,05,15,05,14,16.20
2023,05,15,05,15,16.20
2023,05,15,05,16,16.10
2023,05,15,05,17,16.10
2023,05,15,05,18,16.10
2023,05,15,05,19,16.10
2023,05,15,05,20,16.10
2023,05,15,05,21,16.20
2023,05,15,05,22,16.10
2023,05,15,05,23,16.10
2023,05,15,05,24,16.10
2023,05,15,05,25,16.10
2023,05,15,05,26,16.10
2023,05,15,05,27,16.10
2023,05,15,05,28,16.10
2023,05,15,05,29,16.10
2023,05,15,05,30,16.10
2023,05,15,05,31,16.10
2023,05,15,05,32,16.00
2023,05,15,05,33,16.00
2023,05,15,05,34,16.00
2023,05,15,05,35,15.90
2023,05,15,05,36,15.90
2023,05,15,05,37,15.90
2023,05,15,05,38,15.90
2023,05,15,05,39,15.80
2023,05,15,05,40,15.80
2023,05,15,05,41,15.80
2023,05,15,05,42,15.80
2023,05,15,05,43,15.80
2023,05,15,05,44,15.70
2023,05,15,05,45,15.70
2023,05,15,05,46,15.70
2023,05,15,05,47,15.70
2023,05,15,05,48,15.70
2023,05,15,05,49,15.70
2023,05,15,05,50,15.60
2023,05,15,05,51,15.60
2023,05,15,05,52,15.60
2023,05,15,05,53,15.60
2023,05,15,05,54,15.60
2023,05,15,05,55,15.60
2023,05,15,05,56,15.60
2023,05,15,05,57,15.60
2023,05,15,05,58,15.60
2023,05,15,05,59,15.50
2023,05,15,06,00,15.50
2023,05,15,06,01,15.50
2023,05,15,06,02,15.40
2023,05,15,06,03,15.40
2023,05,15,06,04,15.40
2023,05,15,06,05,15.40
2023,05,15,06,06,15.40
2023,05,15,06,07,15.40
2023,05,15,06,08,15.40
2023,05,15,06,09,15.50
2023,05,15,06,10,15.50
2023,05,15,06,11,15.50
2023,05,15,06,12,15.50
2023,05,15,06,13,15.50
2023,05,15,06,14,15.50
2023,05,15,06,15,15.50
2023,05,15,06,16,15.60
2023,05,15,06,17,15.60
2023,05,15,06,18,15.60
2023,05,15,06,19,15.60
2023,05,15,06,20,15.70
2023,05,15,06,21,15.70
2023,05,15,06,22,15.70
2023,05,15,06,23,15.80
2023,05,15,06,24,15.80
2023,05,15,06,25,15.80
2023,05,15,06,26,15.80
2023,05,15,06,27,15.90
2023,05,15,06,28,15.90
2023,05,15,06,29,15.90
2023,05,15,06,30,16.00
2023,05,15,06,31,16.00
2023,05,15,06,32,16.00
2023,05,15,06,33,16.10
2023,05,15,06,34,16.10
2023,05,15,06,35,16.20
2023,05,15,06,36,16.20
2023,05,15,06,37,16.20
2023,05,15,06,38,16.30
2023,05,15,06,39,16.30
2023,05,15,06,40,16.30
2023,05,15,06,41,16.30
2023,05,15,06,42,16.40
2023,05,15,06,43,16.40
2023,05,15,06,44,16.40
2023,05,15,06,45,16.40
2023,05,15,06,46,16.40
2023,05,15,06,47,16.50
2023,05,15,06,48,16.50
2023,05,15,06,49,16.50
2023,05,15,06,50,16.60
2023,05,15,06,51,16.60
2023,05,15,06,52,16.60
2023,05,15,06,53,16.70
2023,05,15,06,54,16.70
2023,05,15,06,55,16.80
2023,05,15,06,56,16.80
2023,05,15,06,57,16.90
2023,05,15,06,58,16.90
2023,05,15,06,59,17.00
2023,05,15,07,00,17.00
2023,05,15,07,01,17.10
2023,05,15,07,02,17.20
2023,05,15,07,03,17.30
2023,05,15,07,04,17.30
2023,05,15,07,05,17.40
2023,05,15,07,06,17.40
2023,05,15,07,07,17.50
2023,05,15,07,08,17.50
2023,05,15,07,09,17.60
2023,05,15,07,10,17.60
2023,05,15,07,11,17.70
2023,05,15,07,12,17.80
2023,05,15,07,13,17.80
2023,05,15,07,14,17.80
2023,05,15,07,15,17.90
2023,05,15,07,16,17.90
2023,05,15,07,17,18.00
2023,05,15,07,18,18.10
2023,05,15,07,19,18.10
2023,05,15,07,20,18.20
2023,05,15,07,21,18.20
2023,05,15,07,22,18.30
2023,05,15,07,23,18.30
2023,05,15,07,24,18.30
2023,05,15,07,25,18.40
2023,05,15,07,26,18.50
2023,05,15,07,27,18.60
2023,05,15,07,28,18.70
2023,05,15,07,29,18.70
2023,05,15,07,30,18.90
2023,05,15,07,31,18.90
2023,05,15,07,32,19.00
2023,05,15,07,33,19.10
2023,05,15,07,34,19.10
2023,05,15,07,35,19.20
2023,05,15,07,36,19.20
2023,05,15,07,37,19.30
2023,05,15,07,38,19.40
2023,05,15,07,39,19.50
2023,05,15,07,40,19.60
2023,05,15,07,41,19.60
2023,05,15,07,42,19.70
2023,05,15,07,43,19.80
2023,05,15,07,44,19.80
2023,05,15,07,45,19.90
2023,05,15,07,46,20.00
2023,05,15,07,47,20.00
2023,05,15,07,48,20.10
2023,05,15,07,49,20.20
2023,05,15,07,50,20.20
2023,05,15,07,51,20.30
2023,05,15,07,52,20.30
2023,05,15,07,53,20.30
2023,05,15,07,54,20.50
2023,05,15,07,55,20.60
2023,05,15,07,56,20.70
2023,05,15,07,57,20.80
2023,05,15,07,58,21.00
2023,05,15,07,59,21.10
2023,05,15,08,00,21.30
2023,05,15,08,01,21.40
2023,05,15,08,02,21.60
2023,05,15,08,03,21.70
2023,05,15,08,04,21.90
2023,05,15,08,05,22.10
2023,05,15,08,06,22.20
2023,05,15,08,07,22.40
2023,05,15,08,08,22.50
2023,05,15,08,09,22.60
2023,05,15,08,10,22.70
2023,05,15,08,11,22.80
2023,05,15,08,12,22.90
2023,05,15,08,13,23.00
2023,05,15,08,14,23.10
2023,05,15,08,15,23.20
2023,05,15,08,16,23.30
2023,05,15,08,17,23.40
2023,05,15,08,18,23.40
2023,05,15,08,19,23.50
2023,05,15,08,20,23.60
2023,05,15,08,21,23.60
2023,05,15,08,22,23.70
2023,05,15,08,23,23.70
2023,05,15,08,24,23.70
2023,05,15,08,25,23.80
2023,05,15,08,26,23.80
2023,05,15,08,27,23.90
2023,05,15,08,28,23.90
2023,05,15,08,29,24.00
2023,05,15,08,30,24.00
2023,05,15,08,31,24.10
2023,05,15,08,32,24.10
2023,05,15,08,33,24.10
2023,05,15,08,34,24.20
2023,05,15,08,35,24.20
2023,05,15,08,36,24.20
2023,05,15,08,37,24.20
2023,05,15,08,38,24.20
2023,05,15,08,39,24.20
2023,05,15,08,40,24.20
2023,05,15,08,41,24.20
2023,05,15,08,42,24.20
2023,05,15,08,43,24.20
2023,05,15,08,44,24.30
2023,05,15,08,45,24.30
2023,05,15,08,46,24.30
2023,05,15,08,47,24.30
2023,05,15,08,48,24.30
2023,05,15,08,49,24.40
2023,05,15,08,50,24.40
2023,05,15,08,51,24.40
2023,05,15,08,52,24.40
2023,05,15,08,53,24.40
2023,05,15,08,54,24.50
2023,05,15,08,55,24.50
2023,05,15,08,56,24.60
2023,05,15,08,57,24.60
2023,05,15,08,58,24.70
2023,05,15,08,59,24.70
2023,05,15,09,00,24.70
2023,05,15,09,01,24.80
2023,05,15,09,02,24.80
2023,05,15,09,03,24.80
2023,05,15,09,04,24.80
2023,05,15,09,05,24.90
2023,05,15,09,06,24.90
2023,05,15,09,07,24.90
2023,05,15,09,08,25.00
2023,05,15,09,09,25.00
2023,05,15,09,10,25.10
2023,05,15,09,11,25.10
2023,05,15,09,12,25.20
2023,05,15,09,13,25.20
2023,05,15,09,14,25.30
2023,05,15,09,15,25.30
2023,05,15,09,16,25.30
2023,05,15,09,17,25.40
2023,05,15,09,18,25.40
2023,05,15,09,19,25.40
2023,05,15,09,20,25.50
2023,05,15,09,21,25.60
2023,05,15,09,22,25.60
2023,05,15,09,23,25.70
2023,05,15,09,24,25.70
2023,05,15,09,25,25.80
2023,05,15,09,26,25.80
2023,05,15,09,27,25.80
2023,05,15,09,28,25.80
2023,05,15,09,29,25.90
2023,05,15,09,30,25.90
2023,05,15,09,31,25.90
2023,05,15,09,32,25.90
2023,05,15,09,33,25.90
2023,05,15,09,34,25.80
2023,05,15,09,35,25.80
2023,05,15,09,36,25.90
2023,05,15,09,37,25.90
2023,05,15,09,38,25.90
2023,05,15,09,39,25.90
2023,05,15,09,40,25.80
2023,05,15,09,41,25.80
2023,05,15,09,42,25.70
2023,05,15,09,43,25.70
2023,05,15,09,44,25.70
2023,05,15,09,45,25.70
2023,05,15,09,46,25.70
2023,05,15,09,47,25.70
2023,05,15,09,48,25.70
2023,05,15,09,49,25.70
2023,05,15,09,50,25.70
2023,05,15,09,51,25.70
2023,05,15,09,52,25.70
2023,05,15,09,53,25.60
2023,05,15,09,54,25.60
2023,05,15,09,55,25.60
2023,05,15,09,56,25.60
2023,05,15,09,57,25.60
2023,05,15,09,58,25.60
2023,05,15,09,59,25.60
2023,05,15,10,00,25.60
2023,05,15,10,01,25.60
2023,05,15,10,02,25.70
2023,05,15,10,03,25.70
2023,05,15,10,04,25.70
2023,05,15,10,05,25.80
2023,05,15,10,06,25.80
2023,05,15,10,07,25.80
2023,05,15,10,08,25.70
2023,05,15,10,09,25.70
2023,05,15,10,10,25.70
2023,05,15,10,11,25.70
2023,05,15,10,12,25.60
2023,05,15,10,13,25.60
2023,05,15,10,14,25.60
2023,05,15,10,15,25.50
2023,05,15,10,16,25.50
2023,05,15,10,17,25.40
2023,05,15,10,18,25.50
2023,05,15,10,19,25.50
2023,05,15,10,20,25.50
2023,05,15,10,21,25.60
2023,05,15,10,22,25.60
2023,05,15,10,23,25.60
2023,05,15,10,24,25.60
2023,05,15,10,25,25.50
2023,05,15,10,26,25.50
2023,05,15,10,27,25.50
2023,05,15,10,28,25.50
2023,05,15,10,29,25.60
2023,05,15,10,30,25.60
2023,05,15,10,31,25.70
2023,05,15,10,32,25.70
2023,05,15,10,33,25.70
2023,05,15,10,34,25.70
2023,05,15,10,35,25.70
2023,05,15,10,36,25.60
2023,05,15,10,37,25.60
2023,05,15,10,38,25.70
2023,05,15,10,39,25.70
2023,05,15,10,40,25.70
2023,05,15,10,41,25.70
2023,05,15,10,42,25.80
2023,05,15,10,43,25.80
2023,05,15,10,44,25.80
2023,05,15,10,45,25.90
2023,05,15,10,46,25.90
2023,05,15,10,47,26.00
2023,05,15,10,48,26.00
2023,05,15,10,49,26.10
2023,05,15,10,50,26.20
2023,05,15,10,51,26.20
2023,05,15,10,52,26.30
2023,05,15,10,53,26.30
2023,05,15,10,54,26.40
2023,05,15,10,55,26.50
2023,05,15,10,56,26.50
2023,05,15,10,57,26.60
2023,05,15,10,58,26.60
2023,05,15,10,59,26.70
2023,05,15,11,00,26.70
2023,05,15,11,01,26.70
2023,05,15,11,02,26.70
2023,05,15,11,03,26.80
2023,05,15,11,04,26.90
2023,05,15,11,05,26.90
2023,05,15,11,06,27.00
2023,05,15,11,07,27.10
2023,05,15,11,08,27.10
2023,05,15,11,09,27.20
2023,05,15,11,10,27.20
2023,05,15,11,11,27.20
2023,05,15,11,12,27.30
2023,05,15,11,13,27.30
2023,05,15,11,14,27.30
2023,05,15,11,15,27.40
2023,05,15,11,16,27.40
2023,05,15,11,17,27.40
2023,05,15,11,18,27.40
2023,05,15,11,19,27.50
2023,05,15,11,20,27.50
2023,05,15,11,21,27.60
2023,05,15,11,22,27.60
2023,05,15,11,23,27.60
2023,05,15,11,24,27.60
2023,05,15,11,25,27.70
2023,05,15,11,26,27.80
2023,05,15,11,27,27.80
2023,05,15,11,28,27.80
2023,05,15,11,29,27.90
2023,05,15,11,30,27.90
2023,05,15,11,31,27.80
2023,05,15,11,32,27.80
2023,05,15,11,33,27.80
2023,05,15,11,34,27.80
2023,05,15,11,35,27.80
2023,05,15,11,36,27.90
2023,05,15,11,37,27.90
2023,05,15,11,38,27.90
2023,05,15,11,39,27.80
2023,05,15,11,40,27.70
2023,05,15,11,41,27.60
2023,05,15,11,42,27.50
2023,05,15,11,43,27.40
2023,05,15,11,44,27.30
2023,05,15,11,45,27.30
2023,05,15,11,46,27.30
2023,05,15,11,47,27.30
2023,05,15,11,48,27.30
2023,05,15,11,49,27.30
2023,05,15,11,50,27.30
2023,05,15,11,51,27.30
2023,05,15,11,52,27.20
2023,05,15,11,53,27.10
2023,05,15,11,54,27.00
2023,05,15,11,55,27.00
2023,05,15,11,56,26.90
2023,05,15,11,57,26.90
2023,05,15,11,58,26.90
2023,05,15,11,59,27.00
2023,05,15,12,00,27.00
2023,05,15,12,01,26.90
2023,05,15,12,02,26.90
2023,05,15,12,03,26.80
2023,05,15,12,04,26.80
2023,05,15,12,05,26.80
2023,05,15,12,06,26.90
2023,05,15,12,07,26.90
2023,05,15,12,08,27.00
2023,05,15,12,09,27.00
2023,05,15,12,10,27.10
2023,05,15,12,11,27.20
2023,05,15,12,12,27.20
2023,05,15,12,13,27.10
2023,05,15,12,14,27.10
2023,05,15,12,15,27.10
2023,05,15,12,16,27.10
2023,05,15,12,17,27.10
2023,05,15,12,18,27.10
2023,05,15,12,19,27.10
2023,05,15,12,20,27.10
2023,05,15,12,21,27.10
2023,05,15,12,22,27.10
2023,05,15,12,23,27.10
2023,05,15,12,24,27.10
2023,05,15,12,25,27.10
2023,05,15,12,26,27.10
2023,05,15,12,27,27.00
2023,05,15,12,28,26.90
2023,05,15,12,29,26.80
2023,05,15,12,30,26.70
2023,05,15,12,31,26.60
2023,05,15,12,32,26.40
2023,05,15,12,33,26.20
2023,05,15,12,34,26.00
2023,05,15,12,35,25.70
2023,05,15,12,36,25.50
2023,05,15,12,37,25.30
2023,05,15,12,38,25.10
2023,05,15,12,39,24.90
2023,05,15,12,40,24.80
2023,05,15,12,41,24.70
2023,05,15,12,42,24.60
2023,05,15,12,43,24.50
2023,05,15,12,44,24.40
2023,05,15,12,45,24.40
2023,05,15,12,46,24.30
2023,05,15,12,47,24.40
2023,05,15,12,48,24.40
2023,05,15,12,49,24.40
2023,05,15,12,50,24.30
2023,05,15,12,51,24.30
2023,05,15,12,52,24.30
2023,05,15,12,53,24.20
2023,05,15,12,54,24.20
2023,05,15,12,55,24.20
2023,05,15,12,56,24.20
2023,05,15,12,57,24.30
2023,05,15,12,58,24.40
2023,05,15,12,59,24.50
2023,05,15,13,00,24.60
2023,05,15,13,01,24.60
2023,05,15,13,02,24.60
2023,05,15,13,03,24.70
2023,05,15,13,04,24.80
2023,05,15,13,05,24.90
2023,05,15,13,06,24.90
2023,05,15,13,07,24.90
2023,05,15,13,08,24.80
2023,05,15,13,09,24.80
2023,05,15,13,10,24.70
2023,05,15,13,11,24.70
2023,05,15,13,12,24.70
2023,05,15,13,13,24.70
2023,05,15,13,14,24.60
2023,05,15,13,15,24.60
2023,05,15,13,16,24.60
2023,05,15,13,17,24.50
2023,05,15,13,18,24.50
2023,05,15,13,19,24.40
2023,05,15,13,20,24.40
2023,05,15,13,21,24.40
2023,05,15,13,22,24.40
2023,05,15,13,23,24.50
2023,05,15,13,24,24.50
2023,05,15,13,25,24.60
2023,05,15,13,26,24.60
2023,05,15,13,27,24.60
2023,05,15,13,28,24.60
2023,05,15,13,29,24.70
2023,05,15,13,30,24.80
2023,05,15,13,31,25.00
2023,05,15,13,32,25.20
2023,05,15,13,33,25.30
2023,05,15,13,34,25.30
2023,05,15,13,35,25.30
2023,05,15,13,36,25.40
2023,05,15,13,37,25.50
2023,05,15,13,38,25.70
2023,05,15,13,39,25.80
2023,05,15,13,40,25.90
2023,05,15,13,41,26.10
2023,05,15,13,42,26.30
2023,05,15,13,43,26.40
2023,05,15,13,44,26.50
2023,05,15,13,45,26.60
2023,05,15,13,46,26.70
2023,05,15,13,47,26.80
2023,05,15,13,48,26.90
2023,05,15,13,49,26.90
2023,05,15,13,50,27.00
2023,05,15,13,51,27.00
2023,05,15,13,52,27.20
2023,05,15,13,53,27.30
2023,05,15,13,54,27.50
2023,05,15,13,55,27.70
2023,05,15,13,56,27.80
2023,05,15,13,57,27.90
2023,05,15,13,58,28.00
2023,05,15,13,59,28.00
2023,05,15,14,00,28.10
2023,05,15,14,01,28.10
2023,05,15,14,02,28.20
2023,05,15,14,03,28.30
2023,05,15,14,04,28.40
2023,05,15,14,05,28.50
2023,05,15,14,06,28.60
2023,05,15,14,07,28.70
2023,05,15,14,08,28.80
2023,05,15,14,09,28.90
2023,05,15,14,10,28.90
2023,05,15,14,11,29.00
2023,05,15,14,12,29.00
2023,05,15,14,13,29.10
2023,05,15,14,14,29.20
2023,05,15,14,15,29.20
2023,05,15,14,16,29.30
2023,05,15,14,17,29.50
2023,05,15,14,18,29.50
2023,05,15,14,19,29.70
2023,05,15,14,20,29.70
2023,05,15,14,21,29.80
2023,05,15,14,22,29.80
2023,05,15,14,23,29.90
2023,05,15,14,24,30.00
2023,05,15,14,25,30.00
2023,05,15,14,26,30.10
2023,05,15,14,27,30.10
2023,05,15,14,28,30.10
2023,05,15,14,29,30.10
2023,05,15,14,30,30.10
2023,05,15,14,31,30.10
2023,05,15,14,32,30.10
2023,05,15,14,33,30.20
2023,05,15,14,34,30.20
2023,05,15,14,35,30.30
2023,05,15,14,36,30.30
2023,05,15,14,37,30.30
2023,05,15,14,38,30.30
2023,05,15,14,39,30.30
2023,05,15,14,40,30.30
2023,05,15,14,41,30.30
2023,05,15,14,42,30.30
2023,05,15,14,43,30.30
2023,05,15,14,44,30.30
2023,05,15,14,45,30.30
2023,05,15,14,46,30.30
2023,05,15,14,47,30.20
2023,05,15,14,48,30.20
2023,05,15,14,49,30.10
2023,05,15,14,50,30.00
2023,05,15,14,51,29.90
2023,05,15,14,52,29.90
2023,05,15,14,53,29.90
2023,05,15,14,54,29.80
2023,05,15,14,55,29.80
2023,05,15,14,56,29.80
2023,05,15,14,57,29.90
2023,05,15,14,58,29.90
2023,05,15,14,59,30.00
2023,05,15,15,00,30.00
2023,05,15,15,01,30.00
2023,05,15,15,02,30.00
2023,05,15,15,03,30.10
2023,05,15,15,04,30.10
2023,05,15,15,05,30.10
2023,05,15,15,06,30.10
2023,05,15,15,07,30.10
2023,05,15,15,08,30.20
2023,05,15,15,09,30.20
2023,05,15,15,10,30.20
2023,05,15,15,11,30.30
2023,05,15,15,12,30.30
2023,05,15,15,13,30.30
2023,05,15,15,14,30.30
2023,05,15,15,15,30.30
2023,05,15,15,16,30.20
2023,05,15,15,17,30.10
2023,05,15,15,18,30.00
2023,05,15,15,19,29.90
2023,05,15,15,20,29.90
2023,05,15,15,21,30.00
2023,05,15,15,22,30.00
2023,05,15,15,23,30.00
2023,05,15,15,24,30.10
2023,05,15,15,25,30.00
2023,05,15,15,26,30.00
2023,05,15,15,27,30.00
2023,05,15,15,28,30.10
2023,05,15,15,29,30.10
2023,05,15,15,30,30.10
2023,05,15,15,31,30.10
2023,05,15,15,32,30.30
2023,05,15,15,33,30.40
2023,05,15,15,34,30.60
2023,05,15,15,35,30.70
2023,05,15,15,36,30.80
2023,05,15,15,37,30.80
2023,05,15,15,38,30.70
2023,05,15,15,39,30.50
2023,05,15,15,40,30.20
2023,05,15,15,41,30.00
2023,05,15,15,42,29.80
2023,05,15,15,43,29.50
2023,05,15,15,44,29.30
2023,05,15,15,45,29.00
2023,05,15,15,46,28.80
2023,05,15,15,47,28.70
2023,05,15,15,48,28.50
2023,05,15,15,49,28.40
2023,05,15,15,50,28.30
2023,05,15,15,51,28.10
2023,05,15,15,52,28.10
2023,05,15,15,53,28.00
2023,05,15,15,54,27.90
2023,05,15,15,55,27.90
2023,05,15,15,56,27.80
2023,05,15,15,57,27.80
2023,05,15,15,58,27.80
2023,05,15,15,59,27.80
2023,05,15,16,00,27.80
2023,05,15,16,01,27.80
2023,05,15,16,02,27.80
2023,05,15,16,03,27.80
2023,05,15,16,04,27.80
2023,05,15,16,05,27.80
2023,05,15,16,06,27.80
2023,05,15,16,07,27.80
2023,05,15,16,08,27.80
2023,05,15,16,09,27.70
2023,05,15,16,10,27.70
2023,05,15,16,11,27.70
2023,05,15,16,12,27.70
2023,05,15,16,13,27.80
2023,05,15,16,14,27.80
2023,05,15,16,15,27.90
2023,05,15,16,16,27.90
2023,05,15,16,17,28.00
2023,05,15,16,18,28.00
2023,05,15,16,19,28.10
2023,05,15,16,20,28.10
2023,05,15,16,21,28.20
2023,05,15,16,22,28.30
2023,05,15,16,23,28.30
2023,05,15,16,24,28.40
2023,05,15,16,25,28.40
2023,05,15,16,26,28.40
2023,05,15,16,27,28.50
2023,05,15,16,28,28.60
2023,05,15,16,29,28.60
2023,05,15,16,30,28.70
2023,05,15,16,31,28.80
2023,05,15,16,32,28.90
2023,05,15,16,33,28.90
2023,05,15,16,34,29.00
2023,05,15,16,35,29.00
2023,05,15,16,36,29.10
2023,05,15,16,37,29.00
2023,05,15,16,38,29.00
2023,05,15,16,39,29.00
2023,05,15,16,40,29.00
2023,05,15,16,41,28.90
2023,05,15,16,42,28.80
2023,05,15,16,43,28.80
2023,05,15,16,44,28.70
2023,05,15,16,45,28.70
2023,05,15,16,46,28.60
2023,05,15,16,47,28.60
2023,05,15,16,48,28.70
2023,05,15,16,49,28.70
2023,05,15,16,50,28.70
2023,05,15,16,51,28.70
2023,05,15,16,52,28.80
2023,05,15,16,53,28.80
2023,05,15,16,54,28.80
2023,05,15,16,55,28.80
2023,05,15,16,56,28.90
2023,05,15,16,57,28.90
2023,05,15,16,58,28.90
2023,05,15,16,59,29.00
2023,05,15,17,00,29.10
2023,05,15,17,01,29.10
2023,05,15,17,02,29.10
2023,05,15,17,03,29.10
2023,05,15,17,04,29.20
2023,05,15,17,05,29.20
2023,05,15,17,06,29.20
2023,05,15,17,07,29.20
2023,05,15,17,08,29.20
2023,05,15,17,09,29.30
2023,05,15,17,10,29.30
2023,05,15,17,11,29.30
2023,05,15,17,12,29.30
2023,05,15,17,13,29.30
2023,05,15,17,14,29.30
2023,05,15,17,15,29.30
2023,05,15,17,16,29.20
2023,05,15,17,17,29.20
2023,05,15,17,18,29.20
2023,05,15,17,19,29.20